EHI
0 0 0 0 0 0 0 0 0 0 0 0 0 0 0 0 0 0 0 0 0 0 0 0 0 0 0 0 0 0 0 0 0 0 0 0 0 0 0 0 0 0 0 0
0 0 0 0 0 0 0 0 0 0 0 0 0 0 0 0 0 0 0 0 0 0 0 0 0 0 0 0 0 0 0 0 0 0 0 0 0 0 0 0 0 0 0 0
0 0 0 0 0 0 0 0 0 0 0 0 0 0 0 0 0 0 0 0 0 0 0 0 0 0 0 0 0 0 0 0 0 0 0 0 0 0 0 0 0 0 0 0
0 0 0 0 0 0 0 0 0 0 0 0 0 0 0 0 0 0 0 0 0 0 0 0 0 0 0 0 0 0 0 0 0 0 0 0 0 0 0 0 0 0 0 0
0 0 0 0 0 0 0 0 0 0 0 0 0 0 0 0 0 0 0 0 0 0 0 0 0 0 0 0 0 0 0 0 0 0 0 0 0 0 0 0 0 0 0 0
0 0 0 0 0 0 0 0 0 0 0 0 0 0 0 0 0 0 0 0 0 0 0 0 0 0 0 0 0 0 0 0 0 0 0 0 0 0 0 0 0 0 0 0
0 0 0 0 0 0 0 0 0 0 0 0 0 0 0 0 0 0 0 0 0 0 0 0 0 0 0 0 0 0 0 0 0 0 0 0 0 0 0 0 0 0 0 0
0 0 0 0 0 0 0 0 0 0 0 0 0 0 0 0 0 0 0 0 0 0 0 0 0 0 0 0 0 0 0 0 0 0 0 0 0 0 0 0 0 0 0 0
0 0 0 0 0 0 0 0 0 0 0 0 0 0 0 0 0 0 0 0 0 0 0 0 0 0 0 0 0 0 0 0 0 0 0 0 0 0 0 0 0 0 0 0
0 0 0 0 0 0 0 0 0 0 0 0 0 0 0 0 0 0 0 0 0 0 0 0 0 0 0 0 0 0 0 0 0 0 0 0 0 0 0 0 0 0 0 0
0 0 0 0 0 0 0 0 0 0 0 0 0 0 0 0 0 0 0 0 0 0 0 0 0 0 0 0 0 0 0 0 0 0 0 0 0 0 0 0 0 0 0 0
0 0 0 0 0 0 0 0 0 0 0 0 0 0 0 0 0 0 0 0 0 0 0 0 0 0 0 0 0 0 0 0 0 0 0 0 0 0 0 0 0 0 0 0
0 0 0 0 0 0 0 0 0 0 0 0 0 0 0 0 0 0 0 0 0 0 0 0 0 0 0 0 0 0 0 0 0 0 0 0 0 0 0 0 0 0 0 0
0 0 0 0 0 0 0 0 0 0 0 0 0 0 0 0 0 0 0 0 0 0 0 0 0 0 0 0 0 0 0 0 0 0 0 0 0 0 0 0 0 0 0 0
0 0 0 0 0 0 0 0 0 0 0 0 0 0 0 0 0 0 0 0 0 0 0 0 0 0 0 0 0 0 0 0 0 0 0 0 0 0 0 0 0 0 0 0
0 0 0 0 0 0 0 0 0 0 0 0 0 0 0 0 0 0 0 0 0 0 0 0 0 0 0 0 0 0 0 0 0 0 0 0 0 0 0 0 0 0 0 0
0 0 0 0 0 0 0 0 0 0 0 0 0 0 0 0 0 0 0 0 0 0 0 0 0 0 0 0 0 0 0 0 0 0 0 0 0 0 0 0 0 0 0 0
0 0 0 0 0 0 0 0 0 0 0 0 0 0 0 0 0 0 0 0 0 0 0 0 0 0 0 0 0 0 0 0 0 0 0 0 0 0 0 0 0 0 0 0
0 0 0 0 0 0 0 0 0 0 0 0 0 0 0 0 0 0 0 0 0 0 0 0 0 0 0 0 0 0 0 0 0 0 0 0 0 0 0 0 0 0 0 0
0 0 0 0 0 0 0 0 0 0 0 0 0 0 0 0 0 0 0 0 0 0 0 0 0 0 0 0 0 0 0 0 0 0 0 0 0 0 0 0 0 0 0 0
0 0 0 0 0 0 0 0 0 0 0 0 0 0 0 0 0 0 0 0 0 0 0 0 0 0 0 0 0 0 0 0 0 0 0 0 0 0 0 0 0 0 0 0
0 0 0 0 0 0 0 0 0 0 0 0 0 0 0 0 0 0 0 0 0 0 0 0 0 0 0 0 0 0 0 0 0 0 0 0 0 0 0 0 0 0 0 0
0 0 0 0 0 0 0 0 0 0 0 0 0 0 0 0 0 0 0 0 0 0 0 0 0 0 0 0 0 0 0 0 0 0 0 0 0 0 0 0 0 0 0 0
0 0 0 0 0 0 0 0 0 0 0 0 0 0 0 0 0 0 0 0 0 0 0 0 0 0 0 0 0 0 0 0 0 0 0 0 0 0 0 0 0 0 0 0
0 0 0 0 0 0 0 0 0 0 0 0 0 0 0 0 0 0 0 0 0 0 0 0 0 0 0 0 0 0 0 0 0 0 0 0 0 0 0 0 0 0 0 0
0 0 0 0 0 0 0 0 0 0 0 0 0 0 0 0 0 0 0 0 0 0 0 0 0 0 0 0 0 0 0 0 0 0 0 0 0 0 0 0 0 0 0 0
0 0 0 0 0 0 0 0 0 0 0 0 0 0 0 0 0 0 0 0 0 0 0 0 0 0 0 0 0 0 0 0 0 0 0 0 0 0 0 0 0 0 0 0
Wind_Speed
16 16 13 8 9 10 9 9 11 15 16 11 4 8 11 14 15 17 19 18 13 11 10 9 9 8 9 10 9 10 10 10 10 10 10 10 10 10 10 10 11 9 8 8
16 14 4 5 9 9 9 10 12 15 16 9 8 10 13 16 19 22 18 15 16 16 14 13 11 11 10 10 9 9 10 10 11 11 11 11 10 10 10 10 10 9 9 8
12 12 7 4 8 9 10 12 14 18 19 16 14 15 18 19 22 18 17 19 19 18 14 12 12 11 11 10 9 9 10 10 11 11 11 11 13 12 10 10 10 10 9 9
10 11 6 7 5 7 10 13 16 14 16 17 18 18 17 19 18 19 21 21 19 18 17 15 15 14 11 12 11 12 11 12 11 11 12 11 11 11 10 9 9 8 8 8
8 12 4 7 7 11 14 17 10 14 18 21 22 22 19 17 20 21 21 19 17 19 19 16 16 14 13 13 13 14 14 12 12 12 12 11 10 10 8 8 8 8 8 8
8 11 9 7 11 15 16 11 14 20 21 22 24 20 17 20 22 22 20 18 18 18 18 15 13 13 13 15 15 15 15 13 13 12 13 13 11 10 9 7 7 8 9 8
9 12 5 9 15 16 12 14 21 21 21 22 21 20 21 24 22 21 20 19 18 17 16 14 12 12 12 13 14 14 14 14 15 14 13 14 12 9 8 9 9 8 8 7
8 9 7 14 13 12 13 16 19 21 21 21 22 23 23 23 21 21 21 21 21 16 15 12 11 11 12 12 12 13 14 15 15 14 14 14 11 9 8 8 8 8 7 9
6 7 9 12 12 14 16 18 18 20 22 23 24 25 25 23 21 22 21 19 18 18 16 12 10 10 13 12 13 15 15 16 15 15 13 12 12 11 9 7 7 8 8 8
7 9 12 13 15 16 17 18 20 21 23 23 25 26 26 23 21 21 20 20 19 19 19 16 14 14 14 15 14 15 15 15 14 14 13 12 9 9 9 8 7 7 7 8
10 11 13 12 16 18 18 19 21 21 22 23 25 25 24 22 21 21 20 19 19 19 19 20 18 18 17 16 14 15 15 14 13 12 12 10 10 9 9 8 7 6 5 5
7 11 12 15 17 18 19 20 21 22 23 23 23 24 24 22 21 21 22 21 21 21 21 22 21 20 18 15 14 14 13 12 10 9 8 8 8 8 11 11 10 9 7 4
8 12 13 16 17 18 19 21 22 22 22 23 22 22 23 22 21 22 22 22 22 22 22 21 20 19 17 14 13 13 12 11 8 7 7 7 7 7 6 7 9 10 9 6
8 11 14 14 16 17 19 21 21 21 21 21 21 22 22 22 22 22 22 22 21 22 21 20 19 18 15 13 12 12 11 10 8 6 6 6 6 6 5 5 6 6 6 8
10 11 13 14 16 17 18 19 21 20 21 21 21 21 22 22 22 22 21 20 20 21 20 19 17 16 14 12 11 10 7 5 4 4 4 4 5 5 4 5 4 4 6 8
10 11 12 14 16 18 19 20 20 21 21 22 21 22 22 21 20 21 20 20 20 20 19 17 16 14 12 10 9 7 5 4 5 3 3 3 3 4 4 4 4 5 5 8
10 11 13 15 16 17 18 19 19 20 20 21 22 22 21 21 20 21 21 21 19 18 16 15 15 14 12 10 8 5 4 2 3 3 1 1 2 3 4 4 4 4 4 7
8 10 11 13 14 16 17 18 18 19 19 20 20 20 20 20 20 21 21 21 18 17 16 15 15 14 10 8 7 6 4 3 2 2 1 2 2 3 3 4 4 5 6 6
8 10 11 12 13 14 15 16 17 17 17 17 19 19 19 18 17 19 20 19 17 17 18 18 18 12 8 8 9 5 5 4 3 2 2 3 2 2 3 3 3 4 5 6
8 9 11 12 13 13 14 15 16 15 16 16 17 18 19 18 17 18 18 16 13 14 18 18 15 10 8 8 11 6 5 4 3 2 1 2 2 3 3 3 4 4 4 5
8 10 11 12 12 13 13 14 14 15 15 16 16 17 17 16 16 16 15 13 15 19 19 17 11 10 10 11 11 5 3 2 1 0 1 1 2 3 4 4 4 4 5 6
7 8 10 11 12 12 12 12 13 14 15 15 16 16 17 15 16 16 14 11 15 20 16 11 11 13 15 15 8 5 3 2 1 1 1 1 2 3 4 5 6 6 7 7
6 7 8 10 11 12 12 12 13 13 14 14 15 15 15 13 10 11 13 13 14 20 15 10 16 19 19 11 7 5 4 3 2 1 0 1 2 3 4 6 6 7 7 8
5 6 7 8 9 10 11 12 12 10 12 12 13 14 13 12 11 9 9 14 17 19 13 13 18 19 15 8 7 6 5 4 3 3 2 2 2 4 5 5 6 6 6 8
5 6 7 7 8 7 9 10 11 11 12 11 14 14 12 9 11 11 12 15 18 17 14 14 17 17 11 8 9 8 7 6 5 3 3 3 4 4 5 5 6 6 5 6
6 6 5 5 5 5 6 7 8 9 10 11 11 11 11 10 12 12 11 14 18 17 14 12 13 12 10 10 10 10 9 7 6 4 3 2 4 5 5 6 8 5 5 5
7 7 5 4 3 5 6 7 8 9 9 10 11 11 11 11 12 13 14 13 13 13 13 13 13 12 11 11 10 11 10 10 9 7 6 4 3 3 5 6 5 5 5 6
Wind_Direction
317 315 322 1 24 17 7 353 328 331 327 339 16 341 327 320 321 321 318 317 325 328 323 315 308 296 288 280 272 265 261 258 257 256 255 256 259 261 264 267 272 274 279 285
309 314 328 67 39 18 4 354 334 321 317 351 345 330 323 325 325 317 317 331 334 327 322 318 314 309 303 296 290 280 272 269 265 260 258 257 256 256 258 261 263 265 269 274
306 307 287 79 37 15 355 342 331 318 323 339 338 328 324 325 317 319 336 331 324 320 316 310 305 299 296 299 300 297 291 284 278 269 265 261 260 258 252 253 254 255 260 263
301 321 348 79 53 6 337 325 335 349 359 347 331 327 325 316 324 337 328 321 317 314 310 304 301 301 299 302 301 298 294 292 290 284 277 269 262 257 253 252 254 257 260 263
337 337 8 115 42 2 331 314 22 355 339 335 332 320 313 328 333 322 315 314 310 306 304 301 299 298 297 297 298 294 293 292 292 290 288 283 275 266 259 256 254 256 261 256
344 330 348 53 14 349 320 297 14 347 336 332 326 318 321 327 319 315 313 308 304 303 301 296 293 293 292 294 294 293 295 295 291 285 281 279 277 274 272 264 258 256 257 256
343 322 57 21 357 347 332 331 337 331 329 326 322 314 313 316 316 313 309 306 304 301 299 296 290 286 282 286 288 292 296 297 294 289 283 278 270 264 265 266 264 259 265 271
338 329 12 8 357 352 326 325 329 327 323 319 315 313 313 313 312 310 310 309 307 303 298 293 288 287 288 290 295 298 298 294 290 286 284 281 273 266 259 261 261 258 256 259
336 320 345 6 350 344 338 331 327 323 321 319 316 315 315 314 312 313 312 311 310 308 304 303 305 308 304 303 305 302 296 290 286 282 277 271 267 265 260 252 250 252 252 254
315 316 354 351 346 339 334 327 324 323 321 319 317 316 315 316 316 316 317 318 319 319 320 320 322 318 310 306 301 295 289 284 279 276 272 266 257 253 250 244 238 239 247 256
311 345 342 337 336 333 328 328 325 323 323 321 319 318 320 320 322 323 324 327 329 328 324 321 317 310 305 300 294 288 284 280 275 270 265 261 253 244 242 236 225 223 241 252
326 337 322 323 331 330 330 329 329 327 324 324 324 324 325 325 327 330 332 333 330 325 319 313 309 303 299 295 289 285 282 277 271 265 259 253 249 248 230 224 217 213 221 229
325 328 325 324 326 332 330 331 330 328 327 328 330 330 330 332 335 335 332 329 323 317 312 307 304 301 299 296 290 285 279 276 269 264 258 250 242 236 230 216 213 206 204 189
338 335 325 325 331 334 333 331 330 329 330 332 333 335 337 337 335 332 327 322 317 313 310 308 307 305 304 301 295 290 284 278 273 264 254 245 235 226 220 203 189 189 176 156
340 331 324 330 334 335 333 333 332 332 334 337 340 342 341 338 333 327 323 320 318 316 316 316 315 314 315 311 307 302 296 286 283 277 257 236 223 216 210 197 191 185 155 137
329 328 332 335 336 335 335 335 335 335 338 341 343 343 341 336 330 325 325 326 326 323 322 322 323 325 326 325 324 318 312 299 293 289 263 226 202 196 191 185 179 177 169 151
329 332 338 337 336 336 335 336 336 338 340 342 344 342 338 334 331 330 330 331 328 323 326 331 332 335 336 337 334 328 331 332 271 273 252 193 181 175 167 169 166 162 162 146
328 333 339 338 336 332 334 336 338 340 342 344 343 340 337 336 334 332 331 330 331 334 340 340 338 334 340 353 343 337 341 349 358 12 77 112 134 148 158 162 157 143 137 136
325 334 341 341 337 335 334 335 338 340 344 346 342 338 336 336 335 333 332 333 337 342 341 338 332 335 353 5 343 334 352 10 44 61 83 103 121 134 144 146 140 138 143 150
324 338 341 338 339 339 336 337 337 340 345 346 342 337 338 338 338 337 334 334 340 341 333 329 329 340 352 356 336 336 349 357 27 62 97 122 137 149 157 159 157 158 162 168
331 337 337 337 338 337 338 336 337 341 344 346 342 339 338 337 340 340 337 337 338 338 333 327 338 350 346 334 316 320 340 351 7 268 220 189 180 179 183 183 182 183 183 183
328 331 332 333 333 334 335 335 338 341 343 344 342 342 341 342 342 340 339 337 331 332 333 334 343 339 331 321 310 320 334 338 313 270 255 209 182 182 187 184 178 176 177 177
319 325 327 327 329 326 329 337 340 341 341 343 344 347 344 342 341 339 336 333 332 330 330 331 331 329 327 323 327 341 354 355 355 3 328 196 175 164 161 164 163 164 165 164
303 314 319 322 323 321 333 337 338 339 341 344 348 352 347 343 343 344 330 325 332 331 332 330 329 331 330 335 349 359 8 15 30 45 64 82 104 125 137 143 142 142 146 151
291 304 304 316 317 328 332 335 336 340 345 350 349 352 355 351 346 340 336 336 340 339 338 337 336 335 343 355 5 9 16 21 19 29 77 94 100 110 123 126 128 137 145 149
263 275 291 296 302 320 336 340 337 342 346 352 347 350 353 354 351 347 342 343 346 343 345 347 347 348 357 4 11 13 14 17 19 27 45 83 121 129 132 136 140 143 145 143
238 250 246 273 342 3 347 336 338 343 352 355 344 351 354 356 354 350 350 350 350 350 352 353 352 355 1 8 15 18 15 13 13 14 23 37 60 97 117 127 127 131 137 138